584  
ASUS41 KLWX 210810  
RWRLWX  
 
REGIONAL WEATHER ROUNDUP  
NATIONAL WEATHER SERVICE BALTIMORE MD/WASHINGTON DC  
400 AM EDT SAT OCT 21 2017  
 
NOTE: "FAIR" INDICATES FEW OR NO CLOUDS BELOW 12,000 FEET  
WITH NO SIGNIFICANT WEATHER AND/OR S TO VISIBILITY
.  
TC=TEMPERATURE CELSIUS  
 
* =NON NWS SITE. STATION DOES NOT REPORT PRECIPITATION (E.G. RAIN,  
SNOW, ETC.), THUNDER, OR FOG.
 
 
DCZ001-MDZ009-015-VAZ040>042-051-053>054-210900-  
WASHINGTON METRO  
 
CITY SKY/WX TMP DP RH WIND PRES REMARKS
 
WASHINGTON NAT PTCLDY 54 51 90 SW3 30.28S  
DULLES PTCLDY 43 43 100 CALM 30.28S  
ANDREWS AFB CLEAR 47 45 92 CALM 30.26F  
FT BELVOIR PTCLDY 46 45 96 CALM 30.27S  
QUANTICO CLEAR 51 49 92 NW8 30.28S  
COLLEGE PARK* PTCLDY 46 46 97 CALM 30.26F  
LEESBURG* CLEAR 46 46 100 CALM 30.29R  
MANASSAS* PTCLDY 42 41 96 CALM 30.28S  
GAITHERSBURG* CLEAR 44 43 96 CALM 30.28S  
 

 
 
MDZ006>007-011-014-210900-  
BALTIMORE METRO  
 
CITY SKY/WX TMP DP RH WIND PRES REMARKS
 
BWI AIRPORT PTCLDY 48 46 93 CALM 30.26S  
MD SCIENCE CTR N/A 58 44 60 MISG 30.27S  
MARTIN STATE PTCLDY 52 50 93 CALM 30.28S  
ANNAPOLIS CLEAR 53 51 93 CALM 30.26S  
FORT MEADE* PTCLDY 43 43 100 CALM 30.29S  
 

 
 
MDZ012-015-019>023-210900-  
MARYLAND EASTERN SHORE  
 
CITY SKY/WX TMP DP RH WIND PRES REMARKS
 
OCEAN CITY CLEAR 49 47 93 NW6 30.26S  
SALISBURY CLEAR 47 47 100 CALM 30.26S  
CAMBRIDGE* FOG 46 46 100 CALM 30.26F VSB 1/4  
EASTON* CLEAR 50 48 92 CALM 30.30S  
 

 
 
MDZ017>025-210900-  
SOUTHERN MARYLAND  
 
CITY SKY/WX TMP DP RH WIND PRES REMARKS
 
PATUXENT RIVER CLEAR 48 48 100 W6 30.26F  
ST INIGOES CLEAR 48 47 96 CALM 30.26F  
LEONARDTOWN* NOT AVBL  
 

 
 
MDZ003>005-210900-  
NORTH CENTRAL MARYLAND  
 
CITY SKY/WX TMP DP RH WIND PRES REMARKS
 
FREDERICK* CLEAR 45 45 100 CALM 30.30S FOG  
HAGERSTOWN APT CLEAR 52 41 66 CALM 30.27F  
WESTMINSTER* CLEAR 50 43 76 NE3 30.27F  
 

 
 
MDZ501>502-210900-  
WESTERN MARYLAND  
 
CITY SKY/WX TMP DP RH WIND PRES REMARKS
 
OAKLAND* CLEAR 54 32 43 SE10 30.28S  
CUMBERLAND* CLEAR 45 43 93 CALM 30.33F  
 

 
 
VAZ025>031-210900-  
SHENANDOAH VALLEY  
 
CITY SKY/WX TMP DP RH WIND PRES REMARKS
 
WINCHESTER* CLEAR 43 41 93 CALM 30.28S  
FRONT ROYAL* CLEAR 45 43 93 MISG 30.27F  
LURAY* CLEAR 45 45 100 CALM 30.29S  
NEW MARKET* CLEAR 40 39 96 CALM 30.29S  
STAUNTON* CLEAR 41 40 96 CALM 30.31S  
WAYNESBORO* PTCLDY 47 47 100 CALM 30.30S  
 

 
 
WVZ021-048>050-054>055-210900-  
EASTERN WEST VIRGINIA PANHANDLE  
 
CITY SKY/WX TMP DP RH WIND PRES REMARKS
 
MARTINSBURG CLEAR 42 40 92 CALM 30.27S  
PETERSBURG* CLEAR 41 40 97 CALM 30.30F  
 

 
 
VAZ036>039-050-210900-  
CENTRAL FOOTHILLS  
 
CITY SKY/WX TMP DP RH WIND PRES REMARKS
 
CHARLOTTESVILL CLEAR 52 50 93 CALM 30.28S  
CULPEPER* CLEAR 44 42 94 CALM 30.29S FOG  
ORANGE* PTCLDY 45 45 100 CALM 30.28S  
GORDONSVILLE* CLEAR 47 47 100 CALM 30.28S  
WARRENTON* PTCLDY 40 37 89 CALM 30.27F  
 

 
 
VAZ055>057-210900-  
NORTH AND CENTRAL PIEDMONT  
 
CITY SKY/WX TMP DP RH WIND PRES REMARKS
 
FREDERICKSBRG* PTCLDY 48 48 100 CALM 30.27S  
STAFFORD* CLEAR 43 43 100 CALM 30.31S  
 

 
 
NCZ024-NYZ072-PAZ021-071-VAZ022-071-210900-  
OTHER REGIONAL OBSERVATIONS  
 
CITY SKY/WX TMP DP RH WIND PRES REMARKS
 
NEW YORK CITY CLEAR 59 37 44 W3 30.28  
PHILADELPHIA CLEAR 53 45 74 CALM 30.26S  
PITTSBURGH CLEAR 47 41 80 CALM 30.25S  
ROANOKE CLEAR 50 49 96 W3 30.30F  
RICHMOND CLEAR 51 50 96 CALM 30.26F  
RALEIGH CLEAR 51 51 100 CALM 30.26S  
 

 
 
ANZ530>537-210900-  
MARINE OBSERVATIONS  
 
STATION/POSITION TIME TEMP WIND PRES
 
AIR SEA DIR/SP/G  
(UTC) (F) (DEG/KT/KT) (MB)  
THOMAS PT LIGHT 0800 60 67 320/ 5/ 5 N/A  
BALT KEY BRIDGE 0742 58 240/ 4/ 5 1024.6F  
COVE POINT 0742 62 CALM / 1 1025.2F  
LEWISETTA 0742 57 65 270/ 3/ 4 1024.5F  
SOLOMONS ISLAND 0742 58 69 290/ 1/ 2 1024.3F  
PINEY POINT 0724 CALM / 1 N/A  
 

 
 
 
 
CLICK HERE TO GO TO PREVIOUS BULLETINS.

The Nexlab VA Page
The Nexlab MD Page
The Nexlab WV Page Main Text Page